Regional Weather Roundup
Issued by NWS Sioux Falls, SD

Home | Current Version | Previous Version | Text Only | Print | Product List | Glossary Off
Versions: 1 2 3 4 5 6 7 8 9 10 11 12 13 14 15 16 17 18 19 20 21 22 23 24 25 26 27 28 29 30 31 32 33 34 35 36 37 38 39 40 41 42 43 44 45 46 47 48 49 50

475
ASUS43 KFSD 171702
RWRFSD

WEATHER ROUNDUP FOR SE SOUTH DAKOTA/SW MINNESOTA/NW IOWA
NATIONAL WEATHER SERVICE SIOUX FALLS SD
1100 AM CST WED JAN 17 2018

NOTE: "FAIR" INDICATES FEW OR NO CLOUDS BELOW 12,000 FEET WITH NO
SIGNIFICANT WEATHER AND OR OBSTRUCTIONS TO VISIBILITY.


SDZ038>040-050-052>070-171800-
SOUTHEAST SOUTH DAKOTA

CITY           SKY/WX    TMP DP  RH WIND       PRES   REMARKS
BROOKINGS      CLOUDY    17   6  62 SW15      30.24F WCI   2
CHAMBERLAIN    SUNNY     25  13  58 SW9       30.26S WCI  16
HURON          SUNNY     19   7  59 S7        30.25S WCI  10
MADISON        FAIR      14   7  73 SW18      30.25F WCI  -3
MITCHELL       SUNNY     20   7  57 S13       30.29F WCI   7
SIOUX FALLS    CLOUDY    17   6  62 SW10      30.32S WCI   5
WINNER         FAIR      28  14  55 SW10      30.27R WCI  19
YANKTON        CLOUDY    23   9  55 SW10      30.35S WCI  12
$$

MNZ071-072-080-081-089-090-097-098-171800-
SOUTHWEST MINNESOTA

CITY           SKY/WX    TMP DP  RH WIND       PRES   REMARKS
FAIRMONT       CLOUDY    18   7  62 SW21G28   30.31F WCI   1
JACKSON        CLOUDY    18   7  62 SW20G28   30.29F WCI   1
LUVERNE        CLOUDY    16   5  62 SW13      30.33F WCI   2
MARSHALL       CLOUDY    20   8  60 W20       30.21F WCI   4
MONTEVIDEO     CLOUDY    21   9  58 W12G20    30.18F WCI   9
PIPESTONE      CLOUDY    12   5  73 SW15      30.26F WCI  -4
REDWOOD FALLS  CLOUDY    18   7  62 SW15      30.24F WCI   4
WINDOM         CLOUDY    18   0  45 SW20G25   30.27F WCI   1
WORTHINGTON    CLOUDY    15   6  67 SW21G29   30.27S WCI  -2
$$

IAZ001>003-012>014-020>022-031-032-NEZ013-014-SDZ071-171800-
NORTHWEST IOWA

CITY           SKY/WX    TMP DP  RH WIND       PRES   REMARKS
CHEROKEE       CLOUDY    19   7  59 SW14G20   30.40S WCI   6
DENISON        CLOUDY    18   7  62 SW15G23   30.46F WCI   3
ESTHERVILLE    CLOUDY    16   6  65 SW21      30.32F WCI  -1
LE MARS        CLOUDY    18   7  62 S16       30.39S WCI   3
ORANGE CITY    CLOUDY    16   9  73 SW15      30.36S WCI   1
SHELDON        CLOUDY    16   7  67 SW16      30.33S WCI   0
SIOUX CITY     CLOUDY    20   8  60 SW12      30.43F WCI   8
SPENCER        CLOUDY    18   5  57 SW22G28   30.35F WCI   1
STORM LAKE     CLOUDY    18   7  62 SW25      30.37F WCI  -1
$$

ABBREVIATIONS USED IN REMARKS
   TC - TEMPERATURE IN CELSIUS
  WCI - WIND CHILL INDEX
   HX - HEAT INDEX
  VSB - VISIBILITY





USA.gov is the U.S. government's official web portal to all federal, state and local government web resources and services.